Погода в Боголюбове

Россия / Смоленская область     55°30′05″N   32°56′53″E
темп.,
°C
ветер,
м/с
пор.,
м/с
влажн.,
%
обл.,
%
осадки,
мм/ч
давл.,
гПа
погр.,
м
29 июня, ср
ср2900:00+17в31082100 0.2 1021245
03:00+17в3966100 0.3 1022265
06:00+15в386999 0.0 1021197
09:00+19вюв4660100 0.0 1021409
12:00+22вюв3453100 0.1 1021914
15:00+24в3351100 0.1 10201290
18:00+22в3463100 0.0 1019586
21:00+17в367843 0.0 1020130
30 июня, чт
чт3000:00+14вюв23710 0.0 102049
03:00+12в23720 0.0 102045
06:00+13в22750 0.0 102163
09:00+19всв23530 0.0 1021428
12:00+23св24383 0.0 10201580
15:00+25св34355 0.0 10192087
18:00+24св23465 0.0 10191114
21:00+17ююв22735 0.0 102011
1 июля, пт
пт100:00+15сз11755 0.0 102011
03:00+13ссз11774 0.0 102111
06:00+15с22755 0.0 102247
09:00+21с24530 0.0 1022415
12:00+25ссв34420 0.0 10211814
15:00+27св34403 0.0 10202311
18:00+26в244991 0.0 10201753
21:00+19юв247999 0.0 102159
2 июля, сб
сб200:00+16юв247455 0.0 102361
03:00+14ююв226981 0.0 102325
06:00+15ююв227454 0.0 102340
09:00+21ююв115993 0.0 1022344
12:00+26ююв1148100 0.0 10211105
15:00+27зсз2243100 0.0 10211548
18:00+26с1249100 0.0 1020474
21:00+21юз2267100 0.0 102012
3 июля, вс
вс300:00+20з2375100 0.0 101950
03:00+17зсз258633 0.0 101985
06:00+18зсз2584100 0.0 1019116
09:00+23зсз2365100 0.0 1018397
12:00+27зсз234660 0.0 10181527
15:00+29зсз23385 0.0 10162359
18:00+28зсз24477 0.0 10151229
21:00+22з0172100 0.0 101626